Tekamah, NE

5:03 AM CDT on October 17, 2017 (GMT -0500)
Tekamah

Weather History for KTQE - August, 2012

Change the Weather History Date:

Wednesday, August 1, 2012

  Actual Average Record
Temperature  
Mean Temperature 83 °F -  
Max Temperature 100 °F 86 °F 101 °F (1953)
Min Temperature 66 °F 61 °F 52 °F (1968)
Cooling Degree Days 18    
Growing Degree Days 33 (Base 50)    
Moisture  
Dew Point 65 °F    
Average Humidity 61    
Maximum Humidity 87    
Minimum Humidity 28    
Precipitation  
Precipitation 0.00 in - - ()
Sea Level Pressure  
Sea Level Pressure 29.85 in    
Wind  
Wind Speed 4 mph (SSE)    
Max Wind Speed 14 mph    
Max Gust Speed 18 mph    
Visibility 10 miles    
Events      
Averages and records for this station are not official NWS values.
T = Trace of Precipitation, MM = Missing Value Source: NWS Daily Summary

Daily Weather History Graph

Daily Weather History Graph

Search for Another Location

Airport or City:

Trip Planner

Search our weather history database for the weather conditions in past years. The results will help you decide how hot, cold, wet, or windy it might be!

Date:

Astronomy

Aug. 01, 2012 Rise Set
Actual Time 6:19 AM CDT 8:42 PM CDT
Civil Twilight 5:47 AM CDT 9:13 PM CDT
Nautical Twilight 5:09 AM CDT 9:51 PM CDT
Astronomical Twilight 4:25 AM CDT 10:34 PM CDT
Moon 8:11 PM CDT (8/1) 5:50 AM CDT (8/1)
Length of Visible Light 15h 25m
Length of Day
14h 22m
Full, 100% of the Moon is Illuminated
Aug 1
Full
Aug 1
Full
Aug 9
Last Quarter
Aug 17
New
Aug 24
First Quarter

Hourly Weather History & Observations

Time (CDT) Temp. Heat Index Dew Point Humidity Pressure Visibility Wind Dir Wind Speed Gust Speed Precip Events Conditions
12:54 AM 73.0 °F - 68.0 °F 84% 29.91 in 9.0 mi Calm Calm - N/A   Clear
1:54 AM 72.0 °F - 66.0 °F 81% 29.90 in 10.0 mi South 3.5 mph - N/A   Clear
2:54 AM 72.0 °F - 64.9 °F 78% 29.90 in 10.0 mi ESE 3.5 mph - N/A   Clear
3:54 AM 66.9 °F - 63.0 °F 87% 29.88 in 10.0 mi South 4.6 mph - N/A   Clear
4:54 AM 66.9 °F - 63.0 °F 87% 29.89 in 10.0 mi East 3.5 mph - N/A   Clear
5:54 AM 66.9 °F - 63.0 °F 87% 29.89 in 10.0 mi Calm Calm - N/A   Clear
6:54 AM 68.0 °F - 64.0 °F 87% 29.89 in 8.0 mi Calm Calm - N/A   Clear
7:54 AM 72.0 °F - 64.9 °F 78% 29.90 in 8.0 mi Calm Calm - N/A   Clear
8:54 AM 77.0 °F - 66.0 °F 69% 29.91 in 10.0 mi South 4.6 mph - N/A   Clear
9:54 AM 82.9 °F 85.0 °F 66.0 °F 56% 29.92 in 10.0 mi South 9.2 mph - N/A   Clear
10:54 AM 87.1 °F 88.9 °F 64.9 °F 48% 29.91 in 10.0 mi SSW 9.2 mph - N/A   Clear
11:54 AM 90.0 °F 91.7 °F 64.9 °F 43% 29.88 in 10.0 mi South 13.8 mph - N/A   Clear
12:54 PM 93.9 °F 96.1 °F 64.9 °F 38% 29.86 in 10.0 mi SSW 11.5 mph - N/A   Clear
2:54 PM 99.0 °F 100.5 °F 63.0 °F 30% 29.82 in 10.0 mi South 10.4 mph - N/A   Clear
3:54 PM 100.0 °F 101.2 °F 61.0 °F 28% 29.80 in 10.0 mi SSE 10.4 mph 17.3 mph N/A   Clear
4:54 PM 100.0 °F 101.8 °F 62.1 °F 29% 29.78 in 10.0 mi SSE 10.4 mph 18.4 mph N/A   Clear
6:54 PM 96.1 °F 98.3 °F 64.0 °F 35% 29.76 in 10.0 mi SSE 8.1 mph - N/A   Clear
7:54 PM 88.0 °F 90.3 °F 66.0 °F 48% 29.75 in 10.0 mi SSE 5.8 mph - N/A   Clear
8:54 PM 82.9 °F 85.4 °F 66.9 °F 58% 29.78 in 10.0 mi SSE 4.6 mph - N/A   Clear
9:54 PM 80.1 °F 82.7 °F 68.0 °F 67% 29.78 in 8.0 mi ESE 4.6 mph - N/A   Clear
10:54 PM 79.0 °F - 68.0 °F 69% 29.81 in 9.0 mi Calm Calm - N/A   Clear